Location: Charlottesville
(38.0290°N, 78.4770°W)
Time: 15:59:43
(UTC-04:00)

ISS - Pass Details

Date: 16 October 2017
Orbit: 401 x 408 km, 51.6° (Epoch: 21 October)

Event Time Altitude Azimuth Distance (km) Brightness Sun altitude
Rises 19:18:02 0° 306° (NW) 2,322 0.9 -9.3°
Reaches altitude 10° 19:20:09 10° 301° (WNW) 1,461 -0.1 -9.7°
Maximum altitude 19:23:21 55° 223° (SW) 494 -3.1 -10.4°
Drops below altitude 10° 19:26:33 10° 145° (SE) 1,456 -1.3 -11.0°
Enters shadow 19:27:33 - 142° (SE) 1,862 -0.8 -11.2°
